Location: Beetenbrück
(52.8113°N, 9.5946°E)
Time: 22:41:34
(UTC+00:00)

ATLAS 3B R/B - Pass Details

Date: 14 April 2026
Orbit: 937 x 1257 km, 63.8° (Epoch: 12 May)

Event Time Altitude Azimuth Distance (km) Brightness Sun altitude
Rises 19:44:16 0° 255° (WSW) 4,138 6.4 -12.3°
Reaches altitude 10° 19:47:08 10° 261° (W) 3,201 5.9 -12.7°
Maximum altitude 19:54:40 49° 335° (NNW) 1,588 4.0 -13.6°
Drops below altitude 10° 20:02:16 10° 49° (NE) 3,231 5.1 -14.5°
Sets 20:05:11 0° 56° (NE) 4,179 5.6 -14.8°
